Temp
-6 -6 -6 -6 -6 -6 -6 -6 -6 -6 -6 -6 -6 -6 -6 -7 -7 -7 -7 -7 -7 -7 -8 -8 -8 -8 -8 -9 -8 -9 -8 -9 -9 -9 -9 -9 -9 -9 -9 -9 -9 -9 -9
-7 -7 -6 -6 -6 -6 -6 -6 -6 -6 -6 -6 -6 -5 -6 -6 -7 -7 -7 -7 -7 -7 -7 -8 -8 -8 -8 -8 -8 -8 -8 -8 -9 -9 -9 -9 -9 -9 -9 -9 -9 -9 -9
-6 -6 -6 -6 -6 -6 -6 -6 -6 -6 -6 -6 -6 -6 -6 -6 -6 -6 -6 -7 -7 -7 -7 -8 -7 -8 -8 -8 -8 -8 -8 -8 -8 -8 -8 -9 -9 -9 -9 -9 -9 -9 -9
-6 -6 -6 -6 -6 -6 -6 -6 -6 -6 -6 -6 -6 -6 -6 -6 -5 -6 -6 -6 -6 -7 -7 -7 -7 -7 -8 -8 -8 -8 -8 -8 -8 -8 -8 -8 -8 -9 -8 -8 -9 -9 -9
-7 -6 -6 -6 -6 -6 -6 -6 -6 -6 -6 -6 -6 -6 -6 -6 -6 -5 -6 -6 -6 -6 -7 -7 -7 -7 -7 -7 -7 -8 -8 -8 -8 -8 -8 -8 -8 -8 -8 -9 -9 -9 -9
-7 -7 -6 -6 -6 -6 -6 -6 -6 -6 -6 -6 -6 -6 -6 -6 -6 -6 -6 -6 -6 -6 -6 -7 -7 -7 -7 -7 -7 -7 -8 -8 -8 -8 -8 -8 -8 -8 -8 -8 -9 -9 -9
-7 -7 -6 -5 -5 -6 -6 -6 -5 -6 -6 -6 -6 -6 -6 -6 -6 -6 -6 -6 -6 -6 -6 -6 -7 -7 -7 -7 -7 -7 -7 -8 -8 -8 -8 -8 -8 -8 -8 -8 -8 -8 -9
-7 -7 -7 -6 -5 -6 -6 -6 -6 -6 -6 -5 -6 -6 -6 -6 -6 -6 -6 -6 -6 -6 -6 -6 -6 -7 -7 -6 -7 -7 -7 -7 -7 -7 -8 -7 -8 -7 -7 -8 -8 -8 -8
-7 -7 -7 -7 -7 -7 -7 -6 -6 -6 -6 -5 -5 -5 -6 -6 -6 -6 -6 -6 -6 -6 -6 -5 -5 -6 -6 -6 -6 -6 -7 -7 -6 -7 -7 -7 -7 -7 -7 -8 -8 -8 -8
-7 -7 -7 -7 -7 -7 -6 -6 -6 -6 -6 -6 -6 -5 -5 -5 -5 -6 -6 -6 -6 -6 -6 -6 -5 -5 -6 -6 -6 -7 -6 -6 -6 -6 -7 -7 -7 -7 -7 -7 -7 -7 -8
-7 -7 -6 -6 -6 -6 -6 -6 -6 -6 -6 -6 -5 -5 -5 -5 -5 -6 -6 -6 -6 -6 -6 -6 -7 -6 -6 -6 -6 -6 -7 -7 -6 -6 -7 -7 -6 -6 -7 -7 -7 -7 -7
-6 -6 -6 -6 -6 -6 -6 -6 -6 -6 -6 -5 -5 -5 -5 -5 -5 -6 -6 -5 -5 -6 -6 -6 -6 -6 -6 -6 -6 -6 -6 -6 -7 -7 -7 -7 -7 -7 -6 -7 -7 -7 -7
-6 -6 -6 -6 -6 -6 -6 -6 -6 -6 -6 -6 -5 -5 -5 -5 -5 -5 -5 -6 -5 -6 -6 -6 -6 -6 -6 -6 -6 -6 -6 -6 -6 -7 -6 -6 -6 -6 -6 -6 -7 -7 -7
-6 -6 -6 -6 -6 -6 -6 -6 -6 -6 -6 -5 -5 -5 -5 -5 -5 -5 -5 -5 -5 -6 -6 -6 -6 -6 -6 -6 -6 -6 -6 -6 -6 -6 -6 -6 -6 -6 -6 -6 -6 -7 -7
-6 -6 -6 -6 -6 -6 -6 -6 -6 -6 -6 -6 -5 -5 -5 -5 -5 -5 -5 -5 -5 -6 -6 -6 -6 -6 -5 -6 -6 -6 -6 -6 -6 -6 -6 -6 -6 -6 -6 -6 -6 -6 -7
-8 -7 -6 -6 -6 -6 -6 -6 -6 -6 -5 -5 -5 -5 -5 -5 -5 -5 -5 -5 -5 -5 -5 -5 -5 -5 -5 -5 -5 -6 -6 -6 -6 -6 -5 -6 -6 -6 -6 -6 -6 -6 -6
-8 -7 -7 -6 -6 -6 -6 -6 -6 -6 -6 -6 -6 -5 -5 -5 -5 -5 -5 -5 -5 -5 -5 -5 -4 -4 -5 -5 -5 -5 -6 -5 -5 -5 -5 -5 -6 -6 -6 -6 -6 -6 -6
-8 -7 -7 -6 -6 -6 -6 -6 -6 -6 -6 -6 -6 -5 -5 -5 -5 -5 -5 -5 -5 -5 -5 -5 -5 -5 -5 -5 -5 -4 -5 -5 -5 -6 -6 -6 -6 -6 -6 -6 -6 -6 -6
-7 -7 -7 -7 -7 -7 -7 -7 -6 -6 -6 -6 -6 -5 -5 -4 -4 -4 -5 -5 -5 -4 -5 -5 -5 -5 -5 -5 -5 -5 -5 -5 -6 -6 -6 -6 -6 -6 -6 -6 -6 -6 -6
-8 -8 -8 -7 -7 -8 -8 -7 -7 -6 -6 -6 -6 -5 -5 -5 -5 -5 -5 -5 -5 -5 -5 -5 -5 -5 -6 -5 -5 -5 -5 -5 -5 -6 -5 -5 -5 -5 -5 -6 -6 -6 -6
-7 -7 -8 -8 -8 -8 -7 -7 -7 -7 -6 -6 -6 -6 -6 -6 -6 -7 -7 -6 -6 -6 -6 -5 -5 -6 -6 -6 -6 -6 -6 -6 -5 -4 -5 -5 -5 -5 -5 -6 -6 -5 -6
-8 -8 -8 -8 -8 -8 -7 -7 -7 -7 -7 -7 -7 -7 -7 -6 -6 -6 -6 -7 -7 -7 -7 -7 -6 -6 -6 -6 -6 -6 -6 -7 -7 -5 -5 -5 -5 -6 -5 -5 -6 -6 -6
-8 -8 -8 -8 -9 -9 -8 -7 -7 -7 -7 -7 -7 -7 -7 -8 -8 -8 -7 -7 -7 -7 -7 -7 -8 -7 -7 -7 -6 -6 -6 -6 -7 -7 -6 -5 -5 -6 -6 -6 -7 -6 -6
-7 -8 -7 -8 -9 -9 -8 -8 -8 -8 -8 -8 -8 -8 -8 -8 -8 -8 -8 -8 -8 -8 -7 -7 -8 -8 -8 -8 -7 -7 -7 -6 -7 -8 -7 -7 -6 -6 -6 -7 -7 -6 -6
-8 -7 -7 -8 -8 -8 -9 -8 -8 -8 -8 -8 -8 -8 -8 -8 -8 -8 -8 -8 -9 -8 -8 -8 -8 -8 -8 -8 -8 -8 -8 -7 -7 -8 -7 -8 -8 -7 -6 -7 -7 -7 -7
-8 -8 -8 -9 -9 -9 -9 -9 -9 -9 -9 -9 -9 -9 -8 -8 -8 -8 -9 -9 -9 -9 -9 -9 -9 -8 -8 -8 -8 -8 -8 -8 -8 -7 -9 -8 -8 -8 -8 -8 -7 -8 -8
Height
5897 5897 5896 5896 5897 5896 5896 5896 5895 5896 5894 5892 5891 5890 5890 5890 5890 5889 5888 5889 5888 5887 5887 5887 5888 5888 5888 5888 5887 5886 5886 5886 5886 5887 5887 5888 5888 5889 5889 5890 5891 5893 5895
5898 5897 5897 5897 5896 5896 5896 5895 5895 5895 5894 5892 5889 5888 5888 5888 5888 5887 5887 5886 5886 5886 5886 5885 5886 5886 5886 5886 5886 5886 5885 5886 5886 5886 5886 5887 5888 5889 5890 5891 5891 5892 5894
5897 5896 5896 5897 5896 5894 5895 5895 5894 5893 5892 5890 5889 5887 5886 5886 5885 5885 5886 5884 5884 5884 5885 5883 5884 5884 5884 5884 5884 5884 5885 5885 5886 5886 5886 5886 5887 5889 5891 5892 5893 5893 5893
5895 5894 5895 5895 5895 5894 5893 5891 5891 5891 5890 5888 5887 5885 5884 5882 5881 5883 5883 5882 5882 5882 5882 5881 5881 5880 5880 5881 5881 5882 5882 5883 5884 5886 5887 5887 5887 5888 5889 5890 5892 5893 5894
5893 5893 5894 5893 5892 5893 5891 5890 5887 5889 5888 5886 5884 5883 5882 5881 5880 5880 5880 5880 5880 5880 5879 5879 5879 5879 5878 5878 5878 5880 5880 5881 5882 5883 5885 5885 5886 5887 5888 5889 5890 5891 5892
5891 5890 5890 5890 5889 5890 5888 5887 5887 5887 5885 5884 5881 5881 5879 5879 5878 5878 5878 5878 5878 5878 5877 5877 5877 5877 5876 5876 5877 5877 5877 5877 5879 5881 5882 5884 5885 5885 5886 5888 5889 5891 5891
5888 5887 5886 5887 5885 5887 5888 5886 5886 5885 5883 5881 5879 5878 5877 5876 5875 5874 5875 5875 5875 5876 5875 5875 5874 5874 5873 5874 5874 5874 5873 5875 5875 5877 5877 5879 5882 5883 5883 5884 5886 5887 5888
5887 5885 5883 5881 5881 5884 5885 5884 5884 5883 5881 5877 5876 5875 5875 5873 5872 5871 5871 5871 5872 5872 5872 5872 5872 5872 5872 5871 5872 5872 5871 5873 5872 5873 5875 5876 5877 5879 5881 5882 5883 5884 5885
5887 5884 5882 5880 5880 5881 5882 5882 5880 5881 5877 5873 5872 5872 5871 5869 5867 5868 5867 5866 5867 5868 5867 5868 5869 5870 5870 5870 5869 5869 5870 5870 5870 5871 5872 5874 5873 5874 5876 5878 5879 5881 5882
5886 5883 5881 5880 5879 5879 5879 5878 5878 5877 5876 5872 5870 5868 5867 5866 5864 5864 5863 5862 5862 5864 5864 5865 5865 5866 5867 5867 5866 5867 5867 5866 5867 5868 5868 5869 5870 5871 5872 5873 5876 5877 5878
5884 5883 5881 5880 5879 5878 5877 5876 5876 5876 5874 5872 5869 5866 5864 5862 5861 5860 5859 5859 5857 5860 5860 5861 5861 5861 5862 5861 5862 5861 5863 5861 5864 5864 5865 5866 5866 5867 5868 5869 5871 5874 5875
5884 5883 5881 5880 5879 5878 5878 5877 5876 5875 5872 5869 5867 5865 5862 5860 5858 5857 5855 5853 5852 5853 5853 5854 5855 5855 5854 5856 5856 5857 5857 5858 5860 5860 5860 5860 5862 5864 5864 5865 5867 5869 5869
5884 5883 5881 5880 5879 5879 5877 5876 5874 5872 5869 5868 5865 5863 5861 5859 5857 5855 5853 5849 5845 5846 5847 5848 5848 5848 5849 5849 5850 5851 5853 5852 5854 5857 5856 5856 5857 5859 5859 5860 5862 5864 5864
5882 5882 5881 5880 5879 5877 5875 5873 5871 5869 5867 5866 5864 5862 5860 5857 5855 5854 5852 5848 5846 5846 5844 5841 5840 5840 5840 5842 5842 5843 5846 5847 5849 5849 5849 5849 5851 5851 5854 5855 5857 5858 5860
5879 5879 5879 5878 5877 5876 5873 5871 5868 5867 5865 5863 5862 5860 5858 5855 5853 5851 5849 5846 5844 5842 5839 5837 5834 5833 5834 5836 5836 5838 5838 5840 5841 5841 5841 5841 5842 5843 5848 5846 5840 5853 5852
5875 5875 5875 5874 5873 5871 5870 5867 5866 5865 5863 5862 5860 5858 5855 5853 5850 5848 5845 5843 5841 5839 5836 5835 5833 5833 5831 5832 5831 5832 5831 5831 5832 5833 5834 5835 5836 5838 5839 5839 5841 5840 5846
5873 5873 5872 5871 5869 5867 5866 5864 5863 5861 5859 5857 5856 5854 5853 5849 5845 5842 5841 5838 5837 5835 5832 5831 5831 5829 5827 5827 5828 5827 5825 5823 5824 5824 5825 5826 5828 5830 5830 5830 5831 5833 5828
5869 5868 5868 5867 5866 5864 5862 5860 5859 5857 5855 5853 5851 5849 5847 5844 5841 5837 5833 5832 5831 5830 5828 5825 5824 5824 5823 5823 5822 5820 5818 5817 5816 5816 5816 5818 5820 5820 5821 5822 5822 5823 5827
5866 5865 5863 5861 5860 5858 5856 5855 5854 5852 5850 5847 5845 5843 5840 5837 5834 5831 5829 5825 5823 5822 5821 5819 5817 5817 5817 5816 5815 5814 5812 5811 5811 5810 5810 5810 5811 5811 5812 5812 5812 5814 5817
5860 5859 5857 5856 5855 5853 5851 5850 5849 5846 5843 5841 5838 5835 5832 5830 5827 5823 5822 5820 5817 5815 5813 5812 5811 5809 5807 5807 5806 5805 5804 5805 5803 5803 5802 5801 5801 5802 5801 5803 5802 5805 5809
5852 5850 5848 5847 5846 5845 5844 5843 5841 5838 5835 5833 5830 5827 5824 5822 5820 5817 5814 5811 5810 5807 5806 5804 5802 5800 5797 5796 5795 5794 5794 5791 5794 5795 5794 5792 5793 5794 5792 5792 5793 5795 5798
5844 5842 5841 5840 5838 5839 5838 5835 5833 5831 5828 5825 5822 5819 5817 5813 5811 5809 5806 5804 5802 5799 5796 5797 5794 5792 5788 5785 5783 5782 5783 5781 5782 5778 5782 5781 5782 5784 5784 5785 5786 5787 5790
5841 5838 5835 5833 5831 5831 5831 5828 5826 5823 5821 5819 5816 5812 5809 5806 5804 5800 5796 5793 5790 5789 5789 5787 5784 5779 5778 5774 5772 5770 5769 5771 5770 5766 5767 5772 5770 5772 5773 5774 5777 5778 5780
5836 5834 5832 5829 5826 5825 5824 5821 5819 5815 5812 5810 5807 5804 5801 5798 5796 5793 5789 5784 5780 5777 5774 5774 5774 5771 5767 5764 5761 5759 5759 5757 5759 5757 5752 5760 5757 5763 5762 5765 5766 5767 5768
5830 5828 5825 5823 5821 5819 5815 5813 5810 5807 5803 5800 5798 5794 5791 5788 5785 5783 5780 5777 5772 5767 5763 5761 5760 5759 5758 5754 5751 5750 5748 5746 5747 5745 5742 5745 5745 5746 5750 5755 5755 5757 5757
5824 5820 5819 5817 5814 5811 5808 5806 5802 5799 5795 5792 5787 5782 5778 5775 5772 5769 5767 5764 5761 5757 5752 5746 5743 5743 5741 5740 5737 5736 5736 5734 5734 5735 5730 5729 5732 5732 5735 5739 5741 5742 5744
Wind_Speed
3 6 5 3 6 7 6 8 9 10 9 11 10 10 10 9 10 11 11 13 10 10 6 5 8 7 6 6 5 3 2 2 2 3 3 4 6 10 13 17 17 17 15
6 5 4 5 8 9 9 8 6 6 7 9 9 9 10 11 11 13 13 12 10 9 9 8 7 9 8 7 7 6 4 3 1 1 2 3 5 8 9 13 15 16 16
6 7 7 7 9 8 10 10 9 7 8 8 9 11 12 11 13 13 14 14 11 10 12 10 11 8 11 10 8 7 7 6 5 4 4 3 4 9 10 9 10 12 16
10 9 10 10 11 13 11 13 12 11 11 12 10 12 16 15 12 12 13 14 13 12 11 10 11 11 10 12 11 9 8 9 8 7 7 6 6 7 10 12 13 12 12
13 12 11 12 13 15 16 17 11 12 14 13 14 13 15 12 10 10 12 15 13 13 12 12 12 12 11 10 11 12 11 11 11 10 11 10 9 9 10 12 14 15 17
17 18 18 17 19 18 20 11 11 15 17 17 19 20 17 12 13 13 15 14 15 13 14 14 14 12 13 12 11 13 15 15 13 12 12 13 12 12 12 12 14 17 18
15 17 21 18 19 20 14 10 13 14 20 22 21 20 15 16 18 17 14 16 17 16 14 14 14 14 14 13 14 15 15 15 15 16 16 15 15 15 15 14 14 14 16
11 15 17 16 19 17 14 14 15 18 22 19 16 16 19 20 19 17 21 17 18 15 17 14 12 14 14 14 14 14 14 10 17 18 19 19 18 17 17 16 15 15 15
8 9 10 10 8 11 14 13 12 13 17 19 18 15 18 18 21 19 17 25 20 18 21 19 15 14 15 15 15 14 13 13 12 18 19 21 22 20 19 19 19 18 17
8 8 7 6 5 6 8 8 10 11 10 13 15 14 15 15 17 18 19 22 23 23 24 23 22 22 20 17 17 18 15 14 16 15 17 19 24 24 23 22 22 22 21
7 6 6 6 6 6 7 8 9 10 10 10 11 12 12 12 15 16 17 18 16 21 21 24 28 28 25 28 24 22 20 15 19 15 14 18 21 25 25 24 24 24 24
9 9 6 6 6 7 7 8 9 9 9 11 12 12 12 10 9 11 15 14 18 21 28 24 28 30 30 30 30 26 25 21 19 19 18 14 18 24 24 25 25 26 26
10 10 9 7 7 6 5 5 7 10 12 13 14 14 14 14 12 11 15 14 23 25 21 25 30 31 31 32 32 26 26 25 24 22 27 23 20 21 24 25 27 28 28
10 10 11 10 8 9 9 11 11 11 12 13 14 14 15 16 16 15 14 14 10 12 14 19 24 35 31 34 33 28 30 25 28 26 27 30 25 28 23 24 27 27 28
14 11 12 12 13 14 15 15 16 16 15 14 14 15 16 18 18 17 16 15 14 14 15 16 18 18 17 31 26 30 30 32 32 30 28 37 34 37 30 29 35 32 29
14 12 13 14 15 16 18 18 17 17 17 18 19 18 19 20 21 19 18 16 14 15 16 17 15 16 17 19 25 26 27 28 34 35 31 32 34 30 32 38 31 33 33
8 11 12 14 16 17 17 18 20 21 22 21 20 18 19 23 25 22 21 21 21 20 20 17 17 16 18 19 23 23 25 26 31 34 32 37 33 29 30 38 43 28 33
11 13 14 16 18 20 22 23 22 21 21 20 22 24 24 27 26 25 25 24 24 24 25 25 22 22 23 23 23 23 24 26 27 28 37 34 33 28 33 38 45 35 35
12 14 17 18 22 24 24 21 20 21 23 24 25 26 27 29 28 25 23 23 24 24 23 25 28 28 29 29 29 27 25 23 23 29 28 28 35 34 33 33 39 41 41
15 14 17 19 21 22 23 24 25 26 26 26 27 29 29 27 25 25 25 23 23 25 25 25 26 29 30 31 33 33 32 30 30 29 29 32 33 37 35 32 35 36 43
24 22 22 20 22 23 24 26 28 31 32 31 29 26 26 25 26 26 28 29 27 26 25 25 27 30 33 34 31 33 35 38 35 35 34 32 29 32 34 34 28 35 41
21 27 22 22 23 25 27 29 30 32 32 30 29 28 27 29 30 31 30 30 31 31 32 30 30 29 32 37 38 37 36 38 36 40 38 37 36 34 34 37 38 36 40
19 18 17 23 23 25 28 29 30 30 30 30 31 30 29 30 32 34 36 36 36 35 33 34 33 35 34 38 38 41 41 39 36 40 43 38 42 39 38 35 38 35 38
23 27 23 20 22 29 35 37 35 34 32 34 34 33 32 32 34 35 36 38 39 39 38 36 34 35 38 39 41 42 44 43 40 38 44 38 45 42 43 39 40 43 40
26 27 23 23 26 27 29 31 33 35 36 37 38 38 39 38 37 36 35 36 39 41 41 40 40 39 38 39 41 42 44 44 44 43 45 40 40 44 46 40 40 43 47
30 28 27 27 28 29 31 33 34 36 37 40 40 42 42 41 40 39 39 39 40 43 45 48 50 48 48 47 46 46 43 44 44 46 48 47 40 43 44 43 46 45 47
Wind_Direction
22 22 222 223 286 290 305 294 303 311 296 301 308 293 296 293 287 287 294 293 301 253 288 298 249 250 234 241 248 250 299 14 32 87 138 164 179 183 201 202 195 191 190
333 323 333 267 282 277 288 279 280 311 323 317 327 304 296 297 281 275 278 279 286 280 274 263 256 235 240 227 236 243 230 232 206 134 138 167 184 196 187 199 201 194 188
306 291 278 273 262 252 250 263 276 292 311 355 333 332 326 304 284 265 269 274 278 271 278 273 271 278 241 231 219 232 242 235 224 210 205 186 192 192 195 195 195 196 195
285 272 273 272 264 258 252 259 278 294 301 309 314 324 320 319 282 251 265 269 268 265 269 273 269 276 282 236 230 224 229 235 231 229 222 230 228 222 217 212 208 207 204
293 272 273 275 271 266 265 268 266 291 292 294 290 291 291 283 293 263 259 264 263 265 265 270 270 269 270 268 238 236 229 235 240 235 236 223 218 226 232 229 223 220 218
273 281 282 266 269 267 276 283 290 288 290 289 289 289 303 275 267 267 266 267 264 268 262 255 258 258 263 262 258 245 231 230 237 245 242 241 232 221 222 227 231 228 222
277 289 288 269 262 262 271 264 291 293 290 290 285 288 282 281 269 260 257 258 260 257 263 264 262 258 256 257 263 264 259 235 233 239 242 242 240 238 228 225 229 235 234
302 301 300 289 262 250 242 278 285 294 295 304 289 280 282 274 274 282 251 259 253 254 249 250 257 260 257 253 251 258 269 255 246 244 244 245 247 248 245 238 236 235 234
319 310 295 295 247 241 254 278 288 302 313 312 307 298 282 281 278 285 275 252 245 252 243 244 247 254 252 253 253 252 261 251 264 256 257 251 245 244 245 245 242 239 238
15 4 351 334 324 295 288 295 300 307 320 330 329 313 289 282 285 279 269 265 249 247 243 244 245 248 250 248 254 252 251 267 257 251 258 250 245 243 242 240 242 240 237
353 359 357 353 333 323 316 317 321 319 327 325 340 336 310 297 288 279 284 272 263 253 253 253 252 249 253 248 246 244 240 233 255 256 263 258 254 244 243 242 243 242 239
316 320 331 335 337 332 335 331 327 333 337 346 351 354 358 333 319 336 296 288 269 257 260 257 253 253 252 253 260 253 251 242 244 253 256 251 251 249 247 246 245 243 240
308 304 300 299 299 296 295 304 319 332 336 339 344 352 356 354 346 334 331 316 284 310 258 268 262 258 252 252 257 267 272 245 243 247 259 249 250 254 247 246 246 246 243
284 300 301 298 295 296 303 308 309 314 319 326 330 334 341 346 339 334 334 335 334 290 303 277 267 255 255 251 255 263 265 257 260 254 259 254 243 249 251 249 249 247 247
264 266 279 289 298 302 303 302 305 308 308 308 311 315 319 322 327 324 324 327 329 324 313 300 316 310 248 255 266 274 263 261 262 263 261 252 245 254 249 247 246 247 242
266 275 285 294 299 300 300 301 301 301 300 303 304 304 309 315 317 315 312 308 309 307 306 311 299 294 278 277 275 283 279 272 258 259 263 266 251 247 256 249 238 243 237
290 292 296 297 296 293 293 294 292 294 296 298 298 300 310 313 306 300 297 298 298 295 293 291 291 290 286 282 277 279 265 271 261 259 264 263 263 254 250 248 249 257 245
281 272 282 288 288 292 296 296 294 297 299 301 296 299 300 303 299 295 296 294 291 289 288 288 287 282 279 275 277 277 276 273 260 266 261 253 260 262 248 259 248 242 242
301 299 291 285 282 287 287 287 290 295 295 291 291 293 295 297 297 296 294 295 296 297 289 285 286 281 278 277 278 277 277 275 267 269 258 259 257 255 254 264 245 246 236
273 274 281 280 281 282 282 288 289 288 287 286 287 289 291 293 294 295 295 294 293 294 298 297 294 291 287 282 275 274 273 269 268 266 267 267 258 256 258 256 250 239 236
273 267 269 275 272 273 280 282 283 287 291 293 293 293 293 292 292 294 296 296 295 292 288 285 285 287 286 284 280 275 271 269 265 266 268 266 265 263 255 249 247 239 235
299 269 265 273 274 281 280 282 289 292 293 294 294 295 295 297 296 294 293 292 293 293 293 294 293 285 278 277 278 276 272 265 265 263 259 265 265 260 261 249 241 240 233
331 324 289 279 273 285 287 291 294 292 290 290 292 294 298 299 299 299 298 296 294 291 287 287 285 282 279 278 276 275 274 273 271 267 267 259 263 267 264 250 241 242 248
305 312 311 304 291 284 285 288 291 291 295 298 298 297 297 297 297 293 293 293 292 292 294 291 285 278 278 275 276 273 274 273 272 270 269 263 259 261 263 256 247 240 243
304 302 305 305 299 297 295 295 296 298 298 298 297 296 297 297 293 289 286 286 289 292 293 290 288 285 279 276 274 272 269 270 272 272 270 266 259 256 257 256 255 247 249
303 307 306 301 297 296 295 296 295 295 295 295 300 302 300 299 296 295 294 293 292 291 290 292 291 286 284 281 278 277 272 269 266 267 271 269 261 257 254 252 252 252 253